Retour au catalogue

SL-8 DEB *

ActifLEO
NORAD 14801·DEBRIS·🇷🇺 Russia

Lancé Nov 28, 1975 depuis Plesetsk Cosmodrome

Loading…

Prochains Passages (prochaines 24 heures)

TLE

FraisSource: Space-Track

Époque: Sep 14, 2026, 06:00 UTC

1 14801U 75112D   26257.25059509  .00001287  00000-0  23135-3 0  9992
2 14801  74.0568 298.9263 0004723 144.9362 332.3068 14.67746430501362

Suivez SL-8 DEB * en temps réel avec AllMySat

Download on the App Store